Other Surface Observations
Issued by NWS Upton, NY

Current Version | Previous Version | Text Only | Print | Product List | Glossary Off
Versions: 1 2 3 4 5 6 7 8 9 10 11 12 13 14 15 16 17 18 19 20 21 22 23 24 25 26 27 28 29 30 31 32 33 34 35 36 37 38 39 40 41 42 43 44 45 46 47 48 49 50
000 SXUS51 KOKX 301057 OSOOKX NEW YORK CITY METROPOLITAN WEATHER ROUNDUP NATIONAL WEATHER SERVICE NEW YORK NY 700 AM EDT SUN AUG 30 2015 CITY SKY/WX TMP DP RH WIND PRES REMARKS CENTRAL PARK CLEAR 72 61 68 VRB5 30.13R LAGUARDIA APRT PTCLDY 73 62 68 SW5 30.09R KENNEDY INTL PTCLDY 71 64 78 SW7 30.11R NEWARK/LIBERTY PTCLDY 68 62 81 SW6 30.10R TETERBORO APRT CLEAR 68 60 75 CALM 30.09R BNX BOT. GARD. N/A 72 61 68 SW3 30.12R >>>>>>>>>>>>>>>>>>>>>>>>>>>>>>>>> KEY <<<<<<<<<<<<<<<<<<<<<<<<<<<<<<< > SKY/WX - SKY CONDITION/ : R : WCI - WIND CHILL INDEX < > PRESENT WEATHER : E : VSB - VISIBILITY IN MILES < > TMP - TEMPERATURE IN DEG F : M : HX - HEAT INDEX < > DP - DEW POINT TEMPERATURE : A : TC - TEMPERATURE IN < > RH - RELATIVE HUMIDITY : R : CELSIUS < > WIND - DIRECTION/SPEED (MPH) : K : VRB - VARIABLE WIND DIR < > PRES - PRESSURE (IN HG) : S : < >>>>>>>>>>>>>>>>>>>>>>>>>>>>>>>>> KEY <<<<<<<<<<<<<<<<<<<<<<<<<<<<<<<

USA.gov is the U.S. government's official web portal to all federal, state and local government web resources and services.